EW0531 Weather Reports


time (UTC)temp
C
wind
direction
speed
KPH
gust
KPH
rain 1hr
cm
rain 24hr
cm
rain mn
cm
humidity
%
barometer
mb
20260506032040 11 42 4.8 17.7 0.00 0.00 0.00 73 1012.5
20260506031546 11 44 6.4 19.3 0.00 0.00 0.00 72 1012.5
20260506031037 11 46 8.0 19.3 0.00 0.00 0.00 73 1012.6
20260506030537 11 360 6.4 19.3 0.00 0.00 0.00 73 1012.6
20260506025536 11 5 6.4 17.7 0.00 0.00 0.00 73 1012.5
20260506025036 11 63 4.8 14.5 0.00 0.00 0.00 73 1012.5
20260506024555 11 346 6.4 14.5 0.00 0.00 0.00 73 1012.5
20260506024037 11 348 4.8 12.9 0.00 0.00 0.00 73 1012.5
20260506023537 11 11 6.4 12.9 0.00 0.00 0.00 73 1012.5
20260506023047 11 46 3.2 16.1 0.00 0.00 0.00 73 1012.5
20260506022537 11 59 4.8 16.1 0.00 0.00 0.00 73 1012.5
20260506022037 11 27 6.4 16.1 0.00 0.00 0.00 73 1012.5
20260506021547 11 53 4.8 14.5 0.00 0.00 0.00 73 1012.5
20260506021036 11 37 3.2 12.9 0.00 0.00 0.00 73 1012.5
20260506020536 11 61 4.8 12.9 0.00 0.00 0.00 73 1012.5
20260506020049 11 34 4.8 11.3 0.00 0.00 0.00 73 1012.5
20260506015538 11 38 3.2 9.7 0.00 0.00 0.00 73 1012.4
20260506015037 11 32 3.2 16.1 0.00 0.00 0.00 73 1012.5
20260506014557 11 28 4.8 16.1 0.00 0.00 0.00 73 1012.5
20260506014037 11 59 3.2 12.9 0.00 0.00 0.00 73 1012.4
20260506013536 11 17 3.2 12.9 0.00 0.00 0.00 73 1012.4
20260506013051 11 14 3.2 9.7 0.00 0.00 0.00 73 1012.5
20260506012538 11 17 3.2 9.7 0.00 0.00 0.00 73 1012.5
20260506012036 11 13 3.2 9.7 0.00 0.00 0.00 73 1012.5
20260506011546 11 34 3.2 16.1 0.00 0.00 0.00 72 1012.4
20260506011037 11 30 4.8 16.1 0.00 0.00 0.00 72 1012.5
20260506010534 11 336 4.8 14.5 0.00 0.00 0.00 72 1012.5
20260506010053 11 346 4.8 14.5 0.00 0.00 0.00 72 1012.5
20260506005536 11 5 4.8 16.1 0.00 0.00 0.00 72 1012.6
20260506005037 11 15 3.2 16.1 0.00 0.00 0.00 72 1012.5
20260506004553 11 18 4.8 12.9 0.00 0.00 0.00 72 1012.5
20260506004037 11 48 4.8 14.5 0.00 0.00 0.00 72 1012.5
20260506003537 11 22 4.8 14.5 0.00 0.00 0.00 71 1012.6
20260506003049 11 45 6.4 16.1 0.00 0.00 0.00 71 1012.5
20260506002536 12 22 4.8 16.1 0.00 0.00 0.00 71 1012.4
20260506002037 12 29 4.8 16.1 0.00 0.00 0.00 71 1012.4
20260506001556 12 26 4.8 16.1 0.00 0.00 0.00 71 1012.6
20260506001035 12 360 4.8 16.1 0.00 0.00 0.00 71 1012.5
20260506000534 12 5 4.8 14.5 0.00 0.00 0.00 71 1012.6
20260506000047 12 40 4.8 16.1 0.00 0.00 0.00 70 1012.4
20260505235536 12 44 4.8 16.1 0.00 0.00 0.00 70 1012.5
20260505235034 12 10 3.2 14.5 0.00 0.00 0.00 70 1012.5
20260505234548 12 330 4.8 12.9 0.00 0.00 0.00 70 1012.5
20260505234035 12 360 6.4 14.5 0.00 0.00 0.00 70 1012.5
20260505233534 12 25 4.8 17.7 0.00 0.00 0.00 70 1012.5
20260505233059 12 340 6.4 17.7 0.00 0.00 0.00 69 1012.6
20260505232534 12 34 4.8 14.5 0.00 0.00 0.00 69 1012.5
20260505232034 12 326 4.8 14.5 0.00 0.00 0.00 69 1012.6
20260505231550 12 321 4.8 14.5 0.00 0.00 0.00 69 1012.7
20260505231039 12 35 8.0 14.5 0.00 0.00 0.00 69 1012.7
20260505230536 12 13 4.8 14.5 0.00 0.00 0.00 69 1012.7
20260505230051 12 34 4.8 14.5 0.00 0.00 0.00 69 1012.7
20260505225537 12 23 3.2 14.5 0.00 0.00 0.00 68 1012.7
20260505225037 12 332 4.8 14.5 0.00 0.00 0.00 68 1012.7
20260505224549 12 19 4.8 14.5 0.00 0.00 0.00 68 1012.7
20260505224036 12 23 4.8 14.5 0.00 0.00 0.00 68 1012.6
20260505223537 12 13 6.4 20.9 0.00 0.00 0.00 68 1012.7
20260505223051 12 360 4.8 20.9 0.00 0.00 0.00 68 1012.7
20260505222534 12 338 6.4 20.9 0.00 0.00 0.00 68 1012.6
20260505222036 12 321 8.0 19.3 0.00 0.00 0.00 68 1012.7
20260505221553 12 11 4.8 16.1 0.00 0.00 0.00 68 1012.7
20260505221038 12 303 4.8 16.1 0.00 0.00 0.00 68 1012.8
20260505220534 12 27 8.0 17.7 0.00 0.00 0.00 67 1012.7
20260505220048 12 350 9.7 17.7 0.00 0.00 0.00 67 1012.8
20260505215538 12 19 6.4 20.9 0.00 0.00 0.00 67 1012.7
20260505215037 12 21 8.0 20.9 0.00 0.00 0.00 67 1012.7
20260505214548 12 337 6.4 16.1 0.00 0.00 0.00 66 1012.7
20260505214036 12 360 3.2 14.5 0.00 0.00 0.00 66 1012.8
20260505213537 13 9 1.6 14.5 0.00 0.00 0.00 66 1012.8
20260505213051 13 360 6.4 14.5 0.00 0.00 0.00 65 1012.8
20260505212537 13 11 3.2 14.5 0.00 0.00 0.00 65 1012.7
20260505212037 13 5 3.2 16.1 0.00 0.00 0.00 65 1012.7
20260505211546 13 13 4.8 20.9 0.00 0.00 0.00 64 1012.7
20260505211037 13 39 4.8 20.9 0.00 0.00 0.00 64 1012.7
20260505210536 13 349 8.0 17.7 0.00 0.00 0.00 64 1012.7
20260505210042 13 57 4.8 16.1 0.00 0.00 0.00 63 1012.6
20260505205541 13 331 6.4 17.7 0.00 0.00 0.00 63 1012.7
20260505205037 13 333 6.4 17.7 0.00 0.00 0.00 62 1012.7
20260505204553 14 331 3.2 16.1 0.00 0.00 0.00 62 1012.5
20260505204037 14 360 4.8 16.1 0.00 0.00 0.00 61 1012.5
20260505203538 14 340 4.8 16.1 0.00 0.00 0.00 61 1012.5
20260505203050 14 355 3.2 11.3 0.00 0.00 0.00 60 1012.5
20260505202538 14 342 4.8 12.9 0.00 0.00 0.00 60 1012.5
20260505202037 14 345 3.2 12.9 0.00 0.00 0.00 60 1012.5
20260505201548 14 5 3.2 12.9 0.00 0.00 0.00 60 1012.4
20260505201037 14 343 4.8 17.7 0.00 0.00 0.00 60 1012.4
20260505200537 14 16 3.2 17.7 0.00 0.00 0.00 60 1012.4
20260505200049 15 32 6.4 17.7 0.00 0.00 0.00 60 1012.3
20260505195539 15 48 1.6 14.5 0.00 0.00 0.00 60 1012.3
20260505195036 15 36 3.2 14.5 0.00 0.00 0.00 60 1012.3
20260505194556 15 13 4.8 19.3 0.00 0.00 0.00 60 1012.2
20260505194036 15 27 4.8 19.3 0.00 0.00 0.00 60 1012.1
20260505193535 15 17 3.2 16.1 0.00 0.00 0.00 59 1012.2
20260505193104 15 52 6.4 16.1 0.00 0.00 0.00 59 1012.2
20260505192534 15 314 3.2 14.5 0.00 0.00 0.00 59 1012.0
20260505192038 15 35 4.8 14.5 0.00 0.00 0.00 59 1012.1
20260505191548 15 42 4.8 12.9 0.00 0.00 0.00 59 1012.0
20260505191038 15 335 3.2 19.3 0.00 0.00 0.00 59 1012.0
20260505190536 15 343 4.8 19.3 0.00 0.00 0.00 59 1012.0
20260505190046 15 28 8.0 16.1 0.00 0.00 0.00 59 1012.0
20260505185536 15 5 1.6 14.5 0.00 0.00 0.00 60 1011.9
20260505185037 15 13 4.8 11.3 0.00 0.00 0.00 59 1011.9
20260505184551 15 355 3.2 12.9 0.00 0.00 0.00 59 1011.9
20260505184041 15 28 4.8 12.9 0.00 0.00 0.00 59 1011.8
20260505183536 15 24 4.8 12.9 0.00 0.00 0.00 58 1011.8
20260505183049 15 348 3.2 16.1 0.00 0.00 0.00 58 1011.8
20260505182534 15 30 6.4 16.1 0.00 0.00 0.00 58 1011.8
20260505182037 15 352 6.4 19.3 0.00 0.00 0.00 58 1011.8
20260505181541 15 342 8.0 19.3 0.00 0.00 0.00 58 1011.8
20260505181037 15 22 4.8 14.5 0.00 0.00 0.00 58 1011.7
20260505180538 16 340 3.2 19.3 0.00 0.00 0.00 58 1011.8
20260505180046 16 36 4.8 19.3 0.00 0.00 0.00 58 1011.8
20260505175537 16 42 8.0 19.3 0.00 0.00 0.00 58 1011.7
20260505175039 16 9 6.4 20.9 0.00 0.00 0.00 58 1011.7
20260505174547 16 19 8.0 20.9 0.00 0.00 0.00 58 1011.8
20260505174037 16 27 8.0 17.7 0.00 0.00 0.00 58 1011.7
20260505173536 16 23 4.8 17.7 0.00 0.00 0.00 58 1011.8
20260505173046 16 348 4.8 17.7 0.00 0.00 0.00 58 1011.8
20260505172536 16 49 4.8 17.7 0.00 0.00 0.00 58 1011.9
20260505172037 16 26 6.4 17.7 0.00 0.00 0.00 57 1011.9
20260505171550 16 24 8.0 17.7 0.00 0.00 0.00 57 1012.0
20260505171037 16 22 6.4 17.7 0.00 0.00 0.00 57 1011.9
20260505170536 16 40 3.2 14.5 0.00 0.00 0.00 57 1012.0
20260505170046 16 355 3.2 20.9 0.00 0.00 0.00 58 1012.0
20260505165534 16 40 4.8 20.9 0.00 0.00 0.00 58 1012.1
20260505165037 16 13 6.4 14.5 0.00 0.00 0.00 57 1012.0
20260505164547 16 355 4.8 14.5 0.00 0.00 0.00 57 1012.0
20260505164033 16 0 4.8 17.7 0.00 0.00 0.00 57 1012.1
20260505163537 16 38 6.4 17.7 0.00 0.00 0.00 56 1012.0
20260505163048 16 58 6.4 14.5 0.00 0.00 0.00 56 1012.0
20260505162538 16 0 1.6 16.1 0.00 0.00 0.00 57 1012.0
20260505162038 16 26 4.8 20.9 0.00 0.00 0.00 57 1012.1
20260505161556 16 0 3.2 20.9 0.00 0.00 0.00 57 1012.1
20260505161037 16 46 9.7 19.3 0.00 0.00 0.00 56 1012.1
20260505160537 16 19 1.6 19.3 0.00 0.00 0.00 57 1012.0
20260505153101 16 20 4.8 19.3 0.00 0.00 0.00 55 1012.1
20260505152537 16 319 4.8 19.3 0.00 0.00 0.00 56 1012.2
20260505152037 17 22 3.2 19.3 0.00 0.00 0.00 55 1012.1
20260505151549 16 54 0.0 16.1 0.00 0.00 0.00 56 1012.1
20260505151039 16 0 6.4 16.1 0.00 0.00 0.00 55 1012.1
20260505150537 16 37 6.4 19.3 0.00 0.00 0.00 55 1012.2
20260505140536 16 337 9.7 22.5 0.00 0.00 0.00 54 1012.3
20260505125037 17 50 4.8 22.5 0.00 0.00 0.00 52 1012.4
20260505124543 17 319 11.3 22.5 0.00 0.00 0.00 52 1012.4
20260505124036 17 306 4.8 29.0 0.00 0.00 0.00 52 1012.5
20260505123539 17 12 8.0 29.0 0.00 0.00 0.00 52 1012.5
20260505123057 17 355 9.7 19.3 0.00 0.00 0.00 50 1012.5
20260505122536 18 330 6.4 24.1 0.00 0.00 0.00 50 1012.5
20260505122037 18 5 9.7 24.1 0.00 0.00 0.00 51 1012.5
20260505121547 18 60 9.7 20.9 0.00 0.00 0.00 51 1012.6
20260505121040 18 27 9.7 20.9 0.00 0.00 0.00 53 1012.6
20260505120536 18 36 12.9 20.9 0.00 0.00 0.00 53 1012.5
20260505120056 18 40 4.8 19.3 0.00 0.00 0.00 53 1012.5
20260505115537 18 340 6.4 22.5 0.00 0.00 0.00 54 1012.6
20260505115036 18 5 8.0 22.5 0.00 0.00 0.00 55 1012.6
20260505114551 17 351 8.0 22.5 0.00 0.00 0.00 56 1012.5
20260505114037 17 27 9.7 19.3 0.00 0.00 0.00 57 1012.7
20260505113539 17 86 9.7 22.5 0.00 0.00 0.00 59 1012.7
20260505113051 17 339 8.0 22.5 0.00 0.00 0.00 59 1012.7
20260505112536 16 60 9.7 22.5 0.00 0.00 0.00 59 1012.6
20260505112036 16 17 9.7 20.9 0.00 0.00 0.00 60 1012.8
20260505111546 16 53 8.0 27.4 0.00 0.00 0.00 61 1012.7
20260505111036 16 32 11.3 27.4 0.00 0.00 0.00 59 1012.8
20260505110535 17 47 6.4 20.9 0.00 0.00 0.00 58 1012.8
20260505102037 15 5 9.7 20.9 0.00 0.00 0.00 64 1013.1
20260505101543 15 69 6.4 19.3 0.00 0.00 0.00 60 1013.1
20260505101036 15 22 11.3 19.3 0.00 0.00 0.00 61 1013.1
20260505100536 15 17 9.7 19.3 0.00 0.00 0.00 61 1013.1
20260505100048 15 66 8.0 19.3 0.00 0.00 0.00 60 1013.2
20260505095536 15 26 9.7 24.1 0.00 0.00 0.00 60 1013.2
20260505095036 15 10 9.7 24.1 0.00 0.00 0.00 61 1013.1
20260505094549 15 19 9.7 25.7 0.00 0.00 0.00 62 1013.2
20260505094036 15 42 12.9 25.7 0.00 0.00 0.00 64 1013.1
20260505093536 15 5 9.7 17.7 0.00 0.00 0.00 64 1013.3
20260505093046 15 30 8.0 17.7 0.00 0.00 0.00 63 1013.3
20260505092537 15 63 9.7 22.5 0.00 0.00 0.00 62 1013.2
20260505092036 15 30 8.0 22.5 0.00 0.00 0.00 62 1013.3
20260505091601 15 48 11.3 20.9 0.00 0.00 0.00 64 1013.3
20260505091037 15 350 8.0 20.9 0.00 0.00 0.00 66 1013.4
20260505090537 14 46 11.3 20.9 0.00 0.00 0.00 65 1013.4
20260505090055 14 32 9.7 20.9 0.00 0.00 0.00 67 1013.3
20260505085537 14 28 8.0 20.9 0.00 0.00 0.00 68 1013.3
20260505085036 14 31 8.0 19.3 0.00 0.00 0.00 68 1013.4
20260505084601 14 55 8.0 19.3 0.00 0.00 0.00 68 1013.4
20260505084037 14 38 8.0 19.3 0.00 0.00 0.00 68 1013.4
20260505083533 13 355 6.4 17.7 0.00 0.00 0.00 70 1013.5
20260505083103 13 63 6.4 17.7 0.00 0.00 0.00 70 1013.4
20260505082537 13 43 8.0 24.1 0.00 0.00 0.00 70 1013.5
20260505082037 13 37 8.0 24.1 0.00 0.00 0.00 70 1013.5
20260505081557 13 30 8.0 22.5 0.00 0.00 0.00 70 1013.5
20260505081037 13 22 8.0 22.5 0.00 0.00 0.00 69 1013.6
20260505080537 13 17 8.0 19.3 0.00 0.00 0.00 69 1013.5
20260505080057 13 24 9.7 24.1 0.00 0.00 0.00 68 1013.6
20260505075534 13 355 9.7 24.1 0.00 0.00 0.00 68 1013.5
20260505075034 13 50 11.3 22.5 0.00 0.00 0.00 67 1013.5
20260505074548 14 41 12.9 22.5 0.00 0.00 0.00 67 1013.6
20260505074034 14 74 8.0 20.9 0.00 0.00 0.00 68 1013.4
20260505073535 14 11 8.0 20.9 0.00 0.00 0.00 67 1013.3
20260505073054 13 46 8.0 20.9 0.00 0.00 0.00 68 1013.4
20260505072536 13 34 8.0 19.3 0.00 0.00 0.00 69 1013.4
20260505072036 13 9 4.8 20.9 0.00 0.00 0.00 69 1013.4
20260505071549 13 55 8.0 20.9 0.00 0.00 0.00 69 1013.4
20260505071037 13 96 4.8 16.1 0.00 0.00 0.00 71 1013.4
20260505070535 13 25 6.4 16.1 0.00 0.00 0.00 72 1013.4
20260505070052 13 19 6.4 17.7 0.00 0.00 0.00 73 1013.4
20260505065537 13 30 8.0 17.7 0.00 0.00 0.00 74 1013.5
20260505065036 13 49 6.4 17.7 0.00 0.00 0.00 75 1013.5
20260505064545 12 38 8.0 17.7 0.00 0.00 0.00 75 1013.6
20260505064038 12 46 6.4 19.3 0.00 0.00 0.00 76 1013.5
20260505063536 12 355 4.8 19.3 0.00 0.00 0.00 77 1013.5
20260505063052 12 65 4.8 14.5 0.00 0.00 0.00 77 1013.6
20260505062534 12 43 4.8 14.5 0.00 0.00 0.00 78 1013.5
20260505062034 12 30 4.8 17.7 0.00 0.00 0.00 79 1013.5
20260505061546 11 16 8.0 17.7 0.00 0.00 0.00 80 1013.4
20260505061034 11 36 6.4 14.5 0.00 0.00 0.00 80 1013.5
20260505060537 11 341 4.8 11.3 0.00 0.00 0.00 80 1013.4
20260505060101 11 42 4.8 9.7 0.00 0.00 0.00 80 1013.4
20260505055537 11 50 4.8 11.3 0.00 0.00 0.00 81 1013.5
20260505055034 11 43 4.8 11.3 0.00 0.00 0.00 81 1013.4
20260505054553 11 65 1.6 14.5 0.00 0.00 0.00 81 1013.5
20260505054039 11 32 3.2 14.5 0.00 0.00 0.00 81 1013.5
20260505053535 11 90 0.0 12.9 0.00 0.00 0.00 81 1013.4
20260505053051 11 36 3.2 12.9 0.00 0.00 0.00 81 1013.3
20260505052537 11 26 4.8 14.5 0.00 0.00 0.00 81 1013.2
20260505052038 11 32 0.0 14.5 0.00 0.00 0.00 81 1013.3
20260505051550 11 39 3.2 14.5 0.00 0.00 0.00 81 1013.2
20260505051037 11 20 1.6 12.9 0.00 0.00 0.00 81 1013.1
20260505050534 11 355 3.2 14.5 0.00 0.00 0.00 81 1013.1
20260505041555 12 0 1.6 8.0 0.00 0.00 0.00 80 1013.2
20260505041035 12 51 1.6 9.7 0.00 0.00 0.00 80 1013.2
20260505040536 12 37 1.6 9.7 0.00 0.00 0.00 80 1013.2
20260505040057 12 26 3.2 9.7 0.00 0.00 0.00 80 1013.2
20260505035535 12 24 3.2 9.7 0.00 0.00 0.00 81 1013.2
20260505035039 12 36 4.8 11.3 0.00 0.00 0.00 81 1013.2
20260505034550 12 5 4.8 11.3 0.00 0.00 0.00 81 1013.3
20260505034037 12 34 4.8 11.3 0.00 0.00 0.00 81 1013.3
20260505033536 12 40 3.2 11.3 0.00 0.00 0.00 81 1013.4
20260505033048 12 37 1.6 6.4 0.00 0.00 0.00 81 1013.5
20260505032535 12 16 3.2 6.4 0.00 0.00 0.00 81 1013.5